,,Stat1,,Stat2,,Stat3,,Stat4,,Wind1,,Wind1,
time,status,PR1M_SUM,status,RH1M_AVG,status,SR1M_AVG,status,TA1M_AVG,status,W1dAve1m,status,W1sAve1m,
1999-11-21, 00:01:00,VALID,0,VALID,100,VALID,0,VALID,18.0256,VALID,203,VALID,0,
1999-11-21, 00:02:00,VALID,0,VALID,100,VALID,0.0169808,VALID,18.0127,VALID,207,VALID,0,
1999-11-21, 00:03:00,VALID,0,VALID,100,VALID,0.0169808,VALID,17.9928,VALID,207,VALID,0,
1999-11-21, 00:04:00,VALID,0,VALID,100,VALID,0,VALID,17.9831,VALID,207,VALID,0,
1999-11-21, 00:05:00,VALID,0,VALID,100,VALID,0.0169808,VALID,17.9668,VALID,207,VALID,0,
1999-11-21, 00:06:00,VALID,0,VALID,100,VALID,0,VALID,17.9668,VALID,207,VALID,0,
1999-11-21, 00:07:00,VALID,0,VALID,100,VALID,0,VALID,17.9709,VALID,207,VALID,0,
1999-11-21, 00:08:00,VALID,0,VALID,100,VALID,0,VALID,17.9545,VALID,207,VALID,0,
1999-11-21, 00:09:00,VALID,0,VALID,100,VALID,0.0169808,VALID,17.948,VALID,207,VALID,0,
1999-11-21, 00:10:00,VALID,0,VALID,100,VALID,0,VALID,17.9317,VALID,207,VALID,0,
1999-11-21, 00:11:00,VALID,0,VALID,100,VALID,0.0169808,VALID,17.9381,VALID,207,VALID,0,
1999-11-21, 00:12:00,VALID,0,VALID,100,VALID,0,VALID,17.9416,VALID,161,VALID,0,
1999-11-21, 00:13:00,VALID,0,VALID,100,VALID,-0.0169808,VALID,17.9353,VALID,157,VALID,0,
1999-11-21, 00:14:01,VALID,0,VALID,100,VALID,-0.0169808,VALID,17.9063,VALID,157,VALID,0,
1999-11-21, 00:15:00,VALID,0,VALID,100,VALID,-0.0169808,VALID,17.8802,VALID,157,VALID,0,
1999-11-21, 00:16:00,VALID,0,VALID,100,VALID,0,VALID,17.8739,VALID,170,VALID,0,
1999-11-21, 00:17:00,VALID,0,VALID,100,VALID,0,VALID,17.8839,VALID,194,VALID,0.18935,
1999-11-21, 00:18:00,VALID,0,VALID,100,VALID,0,VALID,17.925,VALID,203,VALID,0.831931,
1999-11-21, 00:19:00,VALID,0,VALID,100,VALID,-0.0169808,VALID,17.9575,VALID,205,VALID,0.639258,
1999-11-21, 00:20:00,VALID,0,VALID,100,VALID,0,VALID,17.9873,VALID,216,VALID,0.727214,
1999-11-21, 00:21:00,VALID,0,VALID,100,VALID,-0.0169808,VALID,18.0192,VALID,205,VALID,0.769942,
1999-11-21, 00:22:00,VALID,0,VALID,100,VALID,0,VALID,18.0383,VALID,210,VALID,0.671274,
1999-11-21, 00:23:00,VALID,0,VALID,100,VALID,0.0169808,VALID,18.0616,VALID,198,VALID,0.977179,
1999-11-21, 00:24:00,VALID,0,VALID,100,VALID,0,VALID,18.1034,VALID,186,VALID,0.976362,
1999-11-21, 00:25:00,VALID,0,VALID,100,VALID,0.0169808,VALID,18.1066,VALID,188,VALID,1.1123,
1999-11-21, 00:26:01,VALID,0,VALID,100,VALID,0.0339617,VALID,18.0935,VALID,184,VALID,0.728299,
1999-11-21, 00:27:00,VALID,0,VALID,100,VALID,0,VALID,18.0808,VALID,187,VALID,1.07031,
1999-11-21, 00:28:00,VALID,0,VALID,100,VALID,-0.101885,VALID,18.0845,VALID,176,VALID,0.903846,
1999-11-21, 00:29:00,VALID,0,VALID,100,VALID,-0.118866,VALID,18.0759,VALID,177,VALID,0.862664,
1999-11-21, 00:30:00,VALID,0,VALID,100,VALID,-0.101885,VALID,18.0556,VALID,185,VALID,0.695313,
1999-11-21, 00:31:00,VALID,0,VALID,100,VALID,-0.101885,VALID,18.0625,VALID,184,VALID,0.589063,
1999-11-21, 00:32:00,VALID,0,VALID,100,VALID,-0.101885,VALID,18.0598,VALID,188,VALID,0.890408,
1999-11-21, 00:33:00,VALID,0,VALID,100,VALID,-0.118866,VALID,18.0561,VALID,190,VALID,0.829728,
1999-11-21, 00:34:00,VALID,0,VALID,100,VALID,-0.118866,VALID,18.0561,VALID,190,VALID,0.935897,
1999-11-21, 00:35:00,VALID,0,VALID,100,VALID,-0.101885,VALID,18.0625,VALID,177,VALID,1.07998,
1999-11-21, 00:36:00,VALID,0,VALID,100,VALID,-0.101885,VALID,18.0429,VALID,173,VALID,0.84395,
1999-11-21, 00:37:00,VALID,0,VALID,100,VALID,-0.101885,VALID,18.0364,VALID,178,VALID,0.880078,
1999-11-21, 00:38:00,VALID,0,VALID,100,VALID,-0.101885,VALID,18.0498,VALID,166,VALID,0.922309,
1999-11-21, 00:39:00,VALID,0,VALID,100,VALID,-0.101885,VALID,18.0078,VALID,153,VALID,0.893503,
1999-11-21, 00:40:00,VALID,0,VALID,100,VALID,-0.101885,VALID,17.972,VALID,151,VALID,0.907051,
1999-11-21, 00:41:00,VALID,0,VALID,100,VALID,-0.0849042,VALID,17.9623,VALID,150,VALID,0.843544,
1999-11-21, 00:42:00,VALID,0,VALID,100,VALID,-0.0849042,VALID,17.9494,VALID,151,VALID,0.767829,
1999-11-21, 00:43:00,VALID,0,VALID,100,VALID,-0.0339617,VALID,17.9418,VALID,145,VALID,0.754297,
1999-11-21, 00:44:00,VALID,0,VALID,100,VALID,0.0169808,VALID,17.9282,VALID,147,VALID,0.787326,
1999-11-21, 00:45:00,VALID,0,VALID,100,VALID,0.0339617,VALID,17.9183,VALID,148,VALID,0.748766,
1999-11-21, 00:46:00,VALID,0,VALID,100,VALID,0.0339617,VALID,17.8991,VALID,128,VALID,0.48738,
1999-11-21, 00:47:00,VALID,0,VALID,100,VALID,0.0169808,VALID,17.8638,VALID,117,VALID,0.693462,
1999-11-21, 00:48:00,VALID,0,VALID,100,VALID,0.0169808,VALID,17.8642,VALID,111,VALID,0.720152,
1999-11-21, 00:49:00,VALID,0,VALID,100,VALID,0.0169808,VALID,17.8282,VALID,113,VALID,0.752734,
1999-11-21, 00:50:00,VALID,0,VALID,100,VALID,0.0339617,VALID,17.8317,VALID,121,VALID,0.629557,
1999-11-21, 00:51:00,VALID,0,VALID,100,VALID,0.0679233,VALID,17.8019,VALID,122,VALID,0.571546,
1999-11-21, 00:52:00,VALID,0,VALID,100,VALID,0.0339617,VALID,17.7761,VALID,120,VALID,0.55028,
1999-11-21, 00:53:00,VALID,0,VALID,100,VALID,0.0339617,VALID,17.7541,VALID,120,VALID,0.491982,
1999-11-21, 00:54:00,VALID,0,VALID,100,VALID,0,VALID,17.7378,VALID,120,VALID,0.318109,
1999-11-21, 00:55:00,VALID,0,VALID,100,VALID,0.0169808,VALID,17.7149,VALID,120,VALID,0.330664,
1999-11-21, 00:56:00,VALID,0,VALID,100,VALID,0.0339617,VALID,17.7181,VALID,101,VALID,0.547743,
1999-11-21, 00:57:00,VALID,0,VALID,100,VALID,0.0339617,VALID,17.7408,VALID,91,VALID,0.570107,
1999-11-21, 00:58:00,VALID,0,VALID,100,VALID,0,VALID,17.7608,VALID,91,VALID,0.566506,
1999-11-21, 00:59:00,VALID,0,VALID,100,VALID,0,VALID,17.7733,VALID,92,VALID,0.233141,
1999-11-21, 01:00:00,VALID,0,VALID,100,VALID,0,VALID,17.7927,VALID,92,VALID,0,
1999-11-21, 01:01:00,VALID,0,VALID,100,VALID,0,VALID,17.8186,VALID,90,VALID,0,
1999-11-21, 01:02:00,VALID,0,VALID,100,VALID,0.0509425,VALID,17.8483,VALID,90,VALID,0,
1999-11-21, 01:03:00,VALID,0,VALID,100,VALID,0,VALID,17.8543,VALID,94,VALID,0,
1999-11-21, 01:04:00,VALID,0,VALID,100,VALID,0.0169808,VALID,17.8515,VALID,94,VALID,0,
1999-11-21, 01:05:00,VALID,0,VALID,100,VALID,0,VALID,17.8414,VALID,108,VALID,0,
1999-11-21, 01:06:00,VALID,0,VALID,100,VALID,0,VALID,17.8349,VALID,118,VALID,0,
1999-11-21, 01:07:00,VALID,0,VALID,100,VALID,-0.0169808,VALID,17.7929,VALID,171,VALID,0,
1999-11-21, 01:08:00,VALID,0,VALID,100,VALID,0,VALID,17.7643,VALID,180,VALID,0,
1999-11-21, 01:09:00,VALID,0,VALID,100,VALID,0,VALID,17.7287,VALID,169,VALID,0,
1999-11-21, 01:10:01,VALID,0,VALID,100,VALID,0.0169808,VALID,17.693,VALID,144,VALID,0.41867,
1999-11-21, 01:11:00,VALID,0,VALID,100,VALID,0,VALID,17.6932,VALID,141,VALID,0.0386513,
1999-11-21, 01:12:00,VALID,0,VALID,100,VALID,0.0169808,VALID,17.6736,VALID,140,VALID,0,
1999-11-21, 01:13:00,VALID,0,VALID,100,VALID,0.0339617,VALID,17.641,VALID,140,VALID,0,
1999-11-21, 01:14:00,VALID,0,VALID,100,VALID,0,VALID,17.6249,VALID,140,VALID,0,
1999-11-21, 01:15:00,VALID,0,VALID,100,VALID,0,VALID,17.6184,VALID,140,VALID,0,
1999-11-21, 01:16:00,VALID,0,VALID,100,VALID,0.0169808,VALID,17.6382,VALID,140,VALID,0,
1999-11-21, 01:17:00,VALID,0,VALID,100,VALID,0.0169808,VALID,17.638,VALID,139,VALID,0,
1999-11-21, 01:18:00,VALID,0,VALID,100,VALID,0,VALID,17.638,VALID,138,VALID,0,
1999-11-21, 01:19:00,VALID,0,VALID,100,VALID,0,VALID,17.6609,VALID,138,VALID,0,
1999-11-21, 01:20:01,VALID,0,VALID,100,VALID,0,VALID,17.6902,VALID,138,VALID,0,
1999-11-21, 01:21:01,VALID,0,VALID,100,VALID,0,VALID,17.6927,VALID,102,VALID,0,
1999-11-21, 01:22:00,VALID,0,VALID,100,VALID,0.0169808,VALID,17.6932,VALID,98,VALID,0,
1999-11-21, 01:23:00,VALID,0,VALID,100,VALID,0,VALID,17.6606,VALID,98,VALID,0,
1999-11-21, 01:24:00,VALID,0,VALID,100,VALID,0,VALID,17.6413,VALID,96,VALID,0,
1999-11-21, 01:25:00,VALID,0,VALID,100,VALID,0.0339617,VALID,17.596,VALID,93,VALID,0,
1999-11-21, 01:26:00,VALID,0,VALID,100,VALID,0.0169808,VALID,17.5926,VALID,91,VALID,0,
1999-11-21, 01:27:00,VALID,0,VALID,100,VALID,0.0169808,VALID,17.5863,VALID,88,VALID,0,
1999-11-21, 01:28:00,VALID,0,VALID,100,VALID,-0.0339617,VALID,17.5999,VALID,87,VALID,0,
1999-11-21, 01:29:00,VALID,0,VALID,100,VALID,-0.0679233,VALID,17.6133,VALID,87,VALID,0,
1999-11-21, 01:30:00,VALID,0,VALID,100,VALID,-0.0849042,VALID,17.643,VALID,71,VALID,0,
1999-11-21, 01:31:00,VALID,0,VALID,100,VALID,-0.0849042,VALID,17.646,VALID,87,VALID,0,
1999-11-21, 01:32:01,VALID,0,VALID,100,VALID,-0.0849042,VALID,17.656,VALID,112,VALID,0,
1999-11-21, 01:33:00,VALID,0,VALID,100,VALID,-0.0849042,VALID,17.6456,VALID,114,VALID,0,
1999-11-21, 01:34:00,VALID,0,VALID,100,VALID,-0.0849042,VALID,17.6488,VALID,113,VALID,0,
1999-11-21, 01:35:00,VALID,0,VALID,100,VALID,-0.0849042,VALID,17.6518,VALID,108,VALID,0,
1999-11-21, 01:36:00,VALID,0,VALID,100,VALID,-0.0849042,VALID,17.6585,VALID,133,VALID,0,
1999-11-21, 01:37:00,VALID,0,VALID,100,VALID,-0.101885,VALID,17.6684,VALID,142,VALID,0,
1999-11-21, 01:38:00,VALID,0,VALID,100,VALID,-0.0679233,VALID,17.6652,VALID,141,VALID,0,
1999-11-21, 01:39:00,VALID,0,VALID,100,VALID,-0.0509425,VALID,17.6557,VALID,138,VALID,0,
1999-11-21, 01:40:00,VALID,0,VALID,100,VALID,-0.101885,VALID,17.6426,VALID,142,VALID,0,
1999-11-21, 01:41:00,VALID,0,VALID,100,VALID,-0.0849042,VALID,17.6202,VALID,145,VALID,0,
1999-11-21, 01:42:00,VALID,0,VALID,100,VALID,-0.0679233,VALID,17.6006,VALID,173,VALID,0,
1999-11-21, 01:43:01,VALID,0,VALID,100,VALID,-0.0849042,VALID,17.607,VALID,155,VALID,0.328906,
1999-11-21, 01:44:00,VALID,0,VALID,100,VALID,-0.0509425,VALID,17.62,VALID,167,VALID,0.487847,
1999-11-21, 01:45:00,VALID,0,VALID,100,VALID,-0.118866,VALID,17.5941,VALID,186,VALID,0.489926,
1999-11-21, 01:46:00,VALID,0,VALID,100,VALID,-0.0849042,VALID,17.5689,VALID,189,VALID,0.395232,
1999-11-21, 01:47:00,VALID,0,VALID,100,VALID,-0.0679233,VALID,17.5625,VALID,198,VALID,0.160567,
1999-11-21, 01:48:00,VALID,0,VALID,100,VALID,-0.0849042,VALID,17.5366,VALID,194,VALID,0,
1999-11-21, 01:49:00,VALID,0,VALID,100,VALID,-0.101885,VALID,17.5101,VALID,185,VALID,0,
1999-11-21, 01:50:00,VALID,0,VALID,100,VALID,-0.101885,VALID,17.5103,VALID,186,VALID,0,
1999-11-21, 01:51:00,VALID,0,VALID,100,VALID,-0.0849042,VALID,17.5267,VALID,198,VALID,0,
1999-11-21, 01:52:00,VALID,0,VALID,100,VALID,-0.101885,VALID,17.5202,VALID,202,VALID,0,
1999-11-21, 01:53:00,VALID,0,VALID,100,VALID,-0.101885,VALID,17.5172,VALID,211,VALID,0,
1999-11-21, 01:54:01,VALID,0,VALID,100,VALID,-0.0679233,VALID,17.4974,VALID,211,VALID,0,
1999-11-21, 01:55:00,VALID,0,VALID,100,VALID,-0.0849042,VALID,17.4812,VALID,211,VALID,0,
1999-11-21, 01:56:00,VALID,0,VALID,100,VALID,-0.0679233,VALID,17.478,VALID,211,VALID,0,
1999-11-21, 01:57:00,VALID,0,VALID,100,VALID,-0.0679233,VALID,17.4782,VALID,211,VALID,0,
1999-11-21, 01:58:00,VALID,0,VALID,100,VALID,-0.0679233,VALID,17.4582,VALID,210,VALID,0,
1999-11-21, 01:59:00,VALID,0,VALID,100,VALID,0,VALID,17.4314,VALID,201,VALID,0,
1999-11-21, 02:00:00,VALID,0,VALID,100,VALID,0.0339617,VALID,17.425,VALID,173,VALID,0,
1999-11-21, 02:01:00,VALID,0,VALID,100,VALID,0,VALID,17.3993,VALID,172,VALID,0,
1999-11-21, 02:02:00,VALID,0,VALID,100,VALID,0,VALID,17.3933,VALID,172,VALID,0,
1999-11-21, 02:03:00,VALID,0,VALID,100,VALID,0.0169808,VALID,17.3924,VALID,172,VALID,0,
1999-11-21, 02:04:00,VALID,0,VALID,100,VALID,0.0169808,VALID,17.3929,VALID,172,VALID,0,
1999-11-21, 02:05:00,VALID,0,VALID,100,VALID,0.0169808,VALID,17.3929,VALID,172,VALID,0,
1999-11-21, 02:06:00,VALID,0,VALID,100,VALID,0.0339617,VALID,17.383,VALID,172,VALID,0,
1999-11-21, 02:07:00,VALID,0,VALID,100,VALID,0.0169808,VALID,17.3959,VALID,172,VALID,0,
1999-11-21, 02:08:00,VALID,0,VALID,100,VALID,0.0849042,VALID,17.4153,VALID,172,VALID,0,
1999-11-21, 02:09:00,VALID,0,VALID,100,VALID,0.0169808,VALID,17.4026,VALID,197,VALID,0,
1999-11-21, 02:10:00,VALID,0,VALID,100,VALID,0.0509425,VALID,17.412,VALID,212,VALID,0,
1999-11-21, 02:11:00,VALID,0,VALID,100,VALID,0.0339617,VALID,17.4054,VALID,221,VALID,0.472245,
1999-11-21, 02:12:00,VALID,0,VALID,100,VALID,0.0339617,VALID,17.4155,VALID,207,VALID,0.542067,
1999-11-21, 02:13:00,VALID,0,VALID,100,VALID,-0.0169808,VALID,17.4482,VALID,184,VALID,0.415039,
1999-11-21, 02:14:01,VALID,0,VALID,100,VALID,-0.118866,VALID,17.4491,VALID,158,VALID,0.515191,
1999-11-21, 02:15:00,VALID,0,VALID,100,VALID,-0.101885,VALID,17.4131,VALID,147,VALID,0.699013,
1999-11-21, 02:16:00,VALID,0,VALID,100,VALID,-0.101885,VALID,17.4267,VALID,135,VALID,0.705529,
1999-11-21, 02:17:00,VALID,0,VALID,100,VALID,-0.0509425,VALID,17.3907,VALID,131,VALID,0.408512,
1999-11-21, 02:18:00,VALID,0,VALID,100,VALID,-0.0679233,VALID,17.3847,VALID,131,VALID,0.170272,
1999-11-21, 02:19:00,VALID,0,VALID,100,VALID,-0.0509425,VALID,17.3716,VALID,133,VALID,0,
1999-11-21, 02:20:00,VALID,0,VALID,100,VALID,-0.0849042,VALID,17.3489,VALID,155,VALID,0,
1999-11-21, 02:21:00,VALID,0,VALID,100,VALID,-0.0849042,VALID,17.3388,VALID,161,VALID,0,
1999-11-21, 02:22:00,VALID,0,VALID,100,VALID,-0.0679233,VALID,17.3647,VALID,161,VALID,0,
1999-11-21, 02:23:00,VALID,0,VALID,100,VALID,-0.0509425,VALID,17.3942,VALID,157,VALID,0,
1999-11-21, 02:24:00,VALID,0,VALID,100,VALID,-0.0849042,VALID,17.4198,VALID,88,VALID,0.476963,
1999-11-21, 02:25:00,VALID,0,VALID,100,VALID,-0.0849042,VALID,17.4364,VALID,87,VALID,0.960742,
1999-11-21, 02:26:01,VALID,0,VALID,100,VALID,-0.0509425,VALID,17.4136,VALID,87,VALID,1.14019,
1999-11-21, 02:27:00,VALID,0,VALID,100,VALID,-0.0849042,VALID,17.4295,VALID,84,VALID,1.14433,
1999-11-21, 02:28:00,VALID,0,VALID,100,VALID,-0.0339617,VALID,17.4327,VALID,91,VALID,1.00921,
1999-11-21, 02:29:00,VALID,0,VALID,100,VALID,-0.0509425,VALID,17.433,VALID,90,VALID,0.944285,
1999-11-21, 02:30:00,VALID,0,VALID,100,VALID,-0.0339617,VALID,17.4069,VALID,87,VALID,0.708534,
1999-11-21, 02:31:00,VALID,0,VALID,100,VALID,-0.0509425,VALID,17.3843,VALID,95,VALID,0.743945,
1999-11-21, 02:32:00,VALID,0,VALID,100,VALID,-0.0169808,VALID,17.3647,VALID,92,VALID,0.413411,
1999-11-21, 02:33:00,VALID,0,VALID,100,VALID,-0.0339617,VALID,17.3515,VALID,92,VALID,0.222862,
1999-11-21, 02:34:00,VALID,0,VALID,100,VALID,-0.0339617,VALID,17.3455,VALID,92,VALID,0.0627003,
1999-11-21, 02:35:00,VALID,0,VALID,100,VALID,-0.0169808,VALID,17.3584,VALID,135,VALID,0,
1999-11-21, 02:36:00,VALID,0,VALID,100,VALID,-0.0509425,VALID,17.3619,VALID,266,VALID,0,
1999-11-21, 02:37:00,VALID,0,VALID,100,VALID,-0.0509425,VALID,17.3649,VALID,264,VALID,0.214648,
1999-11-21, 02:38:00,VALID,0,VALID,100,VALID,-0.0509425,VALID,17.381,VALID,264,VALID,0.412977,
1999-11-21, 02:39:00,VALID,0,VALID,100,VALID,-0.0339617,VALID,17.4071,VALID,264,VALID,0.00205592,
1999-11-21, 02:40:00,VALID,0,VALID,100,VALID,-0.0509425,VALID,17.4097,VALID,264,VALID,0.0154247,
1999-11-21, 02:41:00,VALID,0,VALID,100,VALID,-0.0679233,VALID,17.43,VALID,264,VALID,0,
1999-11-21, 02:42:00,VALID,0,VALID,100,VALID,-0.0339617,VALID,17.4554,VALID,264,VALID,0,
1999-11-21, 02:43:00,VALID,0,VALID,100,VALID,-0.101885,VALID,17.3877,VALID,182,VALID,0,
1999-11-21, 02:44:00,VALID,0,VALID,100,VALID,-0.0679233,VALID,17.3429,VALID,117,VALID,0,
1999-11-21, 02:45:00,VALID,0,VALID,100,VALID,-0.0849042,VALID,17.3067,VALID,116,VALID,0,
1999-11-21, 02:46:00,VALID,0,VALID,100,VALID,-0.0679233,VALID,17.297,VALID,108,VALID,0,
1999-11-21, 02:47:00,VALID,0,VALID,100,VALID,-0.0509425,VALID,17.3584,VALID,96,VALID,0,
1999-11-21, 02:48:00,VALID,0,VALID,100,VALID,-0.0509425,VALID,17.3067,VALID,103,VALID,0,
1999-11-21, 02:49:00,VALID,0,VALID,100,VALID,-0.0509425,VALID,17.3296,VALID,100,VALID,0,
1999-11-21, 02:50:00,VALID,0,VALID,100,VALID,-0.0509425,VALID,17.3556,VALID,93,VALID,0,
1999-11-21, 02:51:00,VALID,0,VALID,100,VALID,-0.101885,VALID,17.3817,VALID,93,VALID,0,
1999-11-21, 02:52:00,VALID,0,VALID,100,VALID,-0.0339617,VALID,17.3778,VALID,85,VALID,0,
1999-11-21, 02:53:00,VALID,0,VALID,100,VALID,-0.0339617,VALID,17.3552,VALID,75,VALID,0,
1999-11-21, 02:54:00,VALID,0,VALID,100,VALID,0,VALID,17.3713,VALID,76,VALID,0,
1999-11-21, 02:55:00,VALID,0,VALID,100,VALID,-0.0169808,VALID,17.4067,VALID,68,VALID,0,
1999-11-21, 02:56:00,VALID,0,VALID,100,VALID,-0.0169808,VALID,17.5041,VALID,65,VALID,0,
1999-11-21, 02:57:00,VALID,0,VALID,100,VALID,-0.0509425,VALID,17.5846,VALID,86,VALID,0,
1999-11-21, 02:58:00,VALID,0,VALID,100,VALID,-0.0169808,VALID,17.5786,VALID,97,VALID,0,
1999-11-21, 02:59:00,VALID,0,VALID,100,VALID,-0.0169808,VALID,17.5625,VALID,125,VALID,0,
1999-11-21, 03:00:00,VALID,0,VALID,100,VALID,0,VALID,17.5849,VALID,87,VALID,0,
1999-11-21, 03:01:00,VALID,0,VALID,100,VALID,-0.0339617,VALID,17.6499,VALID,68,VALID,0,
1999-11-21, 03:02:00,VALID,0,VALID,100,VALID,-0.0169808,VALID,17.643,VALID,68,VALID,0,
1999-11-21, 03:03:00,VALID,0,VALID,100,VALID,-0.0509425,VALID,17.6426,VALID,68,VALID,0,
1999-11-21, 03:04:00,VALID,0,VALID,100,VALID,-0.0339617,VALID,17.643,VALID,104,VALID,0,
1999-11-21, 03:05:00,VALID,0,VALID,100,VALID,-0.0339617,VALID,17.6336,VALID,124,VALID,0,
1999-11-21, 03:06:00,VALID,0,VALID,100,VALID,-0.0509425,VALID,17.6135,VALID,124,VALID,0,
1999-11-21, 03:07:00,VALID,0,VALID,100,VALID,-0.0169808,VALID,17.6075,VALID,124,VALID,0,
1999-11-21, 03:08:00,VALID,0,VALID,100,VALID,-0.0169808,VALID,17.5888,VALID,124,VALID,0,
1999-11-21, 03:09:00,VALID,0,VALID,100,VALID,-0.0339617,VALID,17.5943,VALID,124,VALID,0,
1999-11-21, 03:10:00,VALID,0,VALID,100,VALID,-0.0339617,VALID,17.6202,VALID,120,VALID,0,
1999-11-21, 03:11:00,VALID,0,VALID,100,VALID,-0.0339617,VALID,17.6267,VALID,119,VALID,0,
1999-11-21, 03:12:00,VALID,0,VALID,100,VALID,-0.0169808,VALID,17.6622,VALID,113,VALID,0,
1999-11-21, 03:13:00,VALID,0,VALID,100,VALID,-0.0339617,VALID,17.6654,VALID,93,VALID,0.283594,
1999-11-21, 03:14:00,VALID,0,VALID,100,VALID,-0.0169808,VALID,17.6786,VALID,94,VALID,0.47309,
1999-11-21, 03:15:00,VALID,0,VALID,100,VALID,-0.0339617,VALID,17.6911,VALID,94,VALID,0.583882,
1999-11-21, 03:16:00,VALID,0,VALID,100,VALID,-0.0339617,VALID,17.6939,VALID,91,VALID,0.229768,
1999-11-21, 03:17:00,VALID,0,VALID,100,VALID,-0.0169808,VALID,17.7303,VALID,92,VALID,0.157072,
1999-11-21, 03:18:00,VALID,0,VALID,100,VALID,-0.0679233,VALID,17.7167,VALID,93,VALID,0.00400641,
1999-11-21, 03:19:00,VALID,0,VALID,100,VALID,-0.0849042,VALID,17.7529,VALID,93,VALID,0,
1999-11-21, 03:20:01,VALID,0,VALID,100,VALID,-0.0509425,VALID,17.824,VALID,107,VALID,0,
1999-11-21, 03:21:00,VALID,0,VALID,100,VALID,-0.0679233,VALID,17.8434,VALID,98,VALID,0.243421,
1999-11-21, 03:22:00,VALID,0,VALID,100,VALID,-0.0849042,VALID,17.8499,VALID,88,VALID,0.601362,
1999-11-21, 03:23:00,VALID,0,VALID,100,VALID,-0.0169808,VALID,17.8721,VALID,94,VALID,0.678865,
1999-11-21, 03:24:00,VALID,0,VALID,100,VALID,-0.0509425,VALID,17.8951,VALID,83,VALID,0.529447,
1999-11-21, 03:25:00,VALID,0,VALID,100,VALID,-0.0339617,VALID,17.9076,VALID,90,VALID,0.580664,
1999-11-21, 03:26:00,VALID,0,VALID,100,VALID,-0.0339617,VALID,17.9272,VALID,85,VALID,0.34375,
1999-11-21, 03:27:00,VALID,0,VALID,100,VALID,-0.0169808,VALID,17.9367,VALID,84,VALID,0.391036,
1999-11-21, 03:28:00,VALID,0,VALID,100,VALID,-0.0169808,VALID,17.9365,VALID,94,VALID,0.475761,
1999-11-21, 03:29:00,VALID,0,VALID,100,VALID,-0.0509425,VALID,17.9621,VALID,92,VALID,0.393298,
1999-11-21, 03:30:00,VALID,0,VALID,100,VALID,-0.0339617,VALID,17.9817,VALID,102,VALID,0.285857,
1999-11-21, 03:31:00,VALID,0,VALID,100,VALID,-0.0339617,VALID,17.9979,VALID,56,VALID,0.128516,
1999-11-21, 03:32:01,VALID,0,VALID,100,VALID,-0.0509425,VALID,18.0399,VALID,70,VALID,0,
1999-11-21, 03:33:00,VALID,0,VALID,100,VALID,-0.0509425,VALID,18.0461,VALID,89,VALID,0,
1999-11-21, 03:34:00,VALID,0,VALID,100,VALID,-0.0169808,VALID,18.0789,VALID,97,VALID,0,
1999-11-21, 03:35:00,VALID,0,VALID,100,VALID,-0.0509425,VALID,18.072,VALID,101,VALID,0,
1999-11-21, 03:36:00,VALID,0,VALID,100,VALID,0,VALID,18.0722,VALID,101,VALID,0,
1999-11-21, 03:37:00,VALID,0,VALID,100,VALID,-0.0169808,VALID,18.0789,VALID,101,VALID,0,
1999-11-21, 03:38:00,VALID,0,VALID,100,VALID,-0.0339617,VALID,18.0817,VALID,101,VALID,0,
1999-11-21, 03:39:00,VALID,0,VALID,100,VALID,-0.0679233,VALID,18.0914,VALID,101,VALID,0,
1999-11-21, 03:40:00,VALID,0,VALID,100,VALID,-0.0679233,VALID,18.1046,VALID,101,VALID,0,
1999-11-21, 03:41:00,VALID,0,VALID,100,VALID,-0.0509425,VALID,18.1269,VALID,108,VALID,0,
1999-11-21, 03:42:00,VALID,0,VALID,100,VALID,-0.0679233,VALID,18.166,VALID,105,VALID,0,
1999-11-21, 03:43:00,VALID,0,VALID,100,VALID,-0.0339617,VALID,18.1819,VALID,94,VALID,0,
1999-11-21, 03:44:00,VALID,0,VALID,100,VALID,0,VALID,18.1918,VALID,94,VALID,0,
1999-11-21, 03:45:00,VALID,0,VALID,100,VALID,-0.0509425,VALID,18.1819,VALID,121,VALID,0,
1999-11-21, 03:46:00,VALID,0,VALID,100,VALID,-0.0339617,VALID,18.1819,VALID,118,VALID,0,
1999-11-21, 03:47:00,VALID,0,VALID,100,VALID,0,VALID,18.1985,VALID,118,VALID,0,
1999-11-21, 03:48:00,VALID,0,VALID,100,VALID,0,VALID,18.1844,VALID,129,VALID,0,
1999-11-21, 03:49:00,VALID,0,VALID,100,VALID,-0.0169808,VALID,18.2013,VALID,129,VALID,0,
1999-11-21, 03:50:00,VALID,0,VALID,100,VALID,-0.0509425,VALID,18.2011,VALID,129,VALID,0,
1999-11-21, 03:51:00,VALID,0,VALID,100,VALID,-0.0169808,VALID,18.214,VALID,122,VALID,0,
1999-11-21, 03:52:00,VALID,0,VALID,100,VALID,-0.0509425,VALID,18.2133,VALID,112,VALID,0,
1999-11-21, 03:53:00,VALID,0,VALID,100,VALID,-0.0339617,VALID,18.2429,VALID,112,VALID,0,
1999-11-21, 03:54:00,VALID,0,VALID,100,VALID,-0.0169808,VALID,18.2429,VALID,102,VALID,0,
1999-11-21, 03:55:00,VALID,0,VALID,100,VALID,-0.0849042,VALID,18.2821,VALID,89,VALID,0,
1999-11-21, 03:56:00,VALID,0,VALID,100,VALID,-0.0339617,VALID,18.2886,VALID,92,VALID,0,
1999-11-21, 03:57:00,VALID,0,VALID,100,VALID,-0.0339617,VALID,18.2816,VALID,92,VALID,0,
1999-11-21, 03:58:00,VALID,0,VALID,100,VALID,0,VALID,18.2911,VALID,92,VALID,0,
1999-11-21, 03:59:00,VALID,0,VALID,100,VALID,0.101885,VALID,18.3098,VALID,92,VALID,0,
1999-11-21, 04:00:00,VALID,0,VALID,100,VALID,0.0679233,VALID,18.2997,VALID,92,VALID,0,
1999-11-21, 04:01:00,VALID,0,VALID,100,VALID,0.0849042,VALID,18.2939,VALID,91,VALID,0,
1999-11-21, 04:02:00,VALID,0,VALID,100,VALID,0.0849042,VALID,18.2673,VALID,86,VALID,0,
1999-11-21, 04:03:00,VALID,0,VALID,100,VALID,0.0849042,VALID,18.2837,VALID,80,VALID,0,
1999-11-21, 04:04:00,VALID,0,VALID,100,VALID,0.0849042,VALID,18.2964,VALID,86,VALID,0,
1999-11-21, 04:05:01,VALID,0,VALID,100,VALID,0.0849042,VALID,18.2766,VALID,88,VALID,0,
1999-11-21, 04:06:00,VALID,0,VALID,100,VALID,0.0509425,VALID,18.3031,VALID,106,VALID,0,
1999-11-21, 04:07:00,VALID,0,VALID,100,VALID,0.101885,VALID,18.2992,VALID,92,VALID,0,
1999-11-21, 04:08:00,VALID,0,VALID,100,VALID,0.0849042,VALID,18.322,VALID,101,VALID,0,
1999-11-21, 04:09:00,VALID,0,VALID,100,VALID,0.101885,VALID,18.3287,VALID,82,VALID,0,
1999-11-21, 04:10:00,VALID,0,VALID,100,VALID,0.0849042,VALID,18.3514,VALID,96,VALID,0,
1999-11-21, 04:11:00,VALID,0,VALID,100,VALID,0.0679233,VALID,18.3608,VALID,89,VALID,0,
1999-11-21, 04:12:00,VALID,0,VALID,100,VALID,0.0849042,VALID,18.3712,VALID,85,VALID,0.235777,
1999-11-21, 04:13:00,VALID,0,VALID,100,VALID,0.0509425,VALID,18.404,VALID,75,VALID,1.13887,
1999-11-21, 04:14:00,VALID,0,VALID,100,VALID,-0.0679233,VALID,18.4306,VALID,88,VALID,0.925781,
1999-11-21, 04:15:00,VALID,0,VALID,100,VALID,-0.0679233,VALID,18.4172,VALID,91,VALID,0.590872,
1999-11-21, 04:16:01,VALID,0,VALID,100,VALID,-0.0679233,VALID,18.4243,VALID,79,VALID,0.44351,
1999-11-21, 04:17:00,VALID,0,VALID,100,VALID,-0.0339617,VALID,18.4333,VALID,22,VALID,0.550576,
1999-11-21, 04:18:00,VALID,0,VALID,100,VALID,-0.0169808,VALID,18.4428,VALID,38,VALID,0.291466,
1999-11-21, 04:19:00,VALID,0,VALID,100,VALID,-0.0169808,VALID,18.4689,VALID,35,VALID,0.263281,
1999-11-21, 04:20:00,VALID,0,VALID,100,VALID,0,VALID,18.4816,VALID,66,VALID,0.370226,
1999-11-21, 04:21:00,VALID,0,VALID,100,VALID,-0.0339617,VALID,18.4848,VALID,86,VALID,0.375822,
1999-11-21, 04:22:00,VALID,0,VALID,100,VALID,0,VALID,18.4786,VALID,88,VALID,0.000200321,
1999-11-21, 04:23:00,VALID,0,VALID,100,VALID,0,VALID,18.4818,VALID,91,VALID,0.130757,
1999-11-21, 04:24:00,VALID,0,VALID,100,VALID,-0.0509425,VALID,18.4853,VALID,91,VALID,0,